Regional Weather Roundup
Issued by NWS Charleston, WV

Home | Current Version | Previous Version | Graphics & Text | Print | Product List | Glossary On
Versions: 1 2 3 4 5 6 7 8 9 10 11 12 13 14 15 16 17 18 19 20 21 22 23 24 25 26 27 28 29 30 31 32 33 34 35 36 37 38 39 40 41 42 43 44 45 46 47 48 49 50
000
ASUS41 KRLX 281910
RWRRLX
West Virginia Regional Weather Roundup
National Weather Service Charleston WV
300 PM EDT TUE JUL 28 2015

Note: "fair" indicates few or no clouds below 12,000 feet with no
significant weather and/or obstructions to visibility.

WVZ003-282000-
Northern Panhandle of West Virginia

CITY           SKY/WX    TMP DP  RH WIND       PRES   REMARKS
WHEELING       PTSUNNY   87  65  47 CALM      30.01S
$$

WVZ009-282000-
Northwest West Virginia

CITY           SKY/WX    TMP DP  RH WIND       PRES   REMARKS
PARKERSBURG    SUNNY     90  66  45 VRB3      30.01F
$$

WVZ006-282000-
Western West Virginia

CITY           SKY/WX    TMP DP  RH WIND       PRES   REMARKS
HUNTINGTON     PTSUNNY   89  72  56 N6        29.98F HX  96
$$

WVZ015-282000-
West Central West Virginia

CITY           SKY/WX    TMP DP  RH WIND       PRES   REMARKS
CHARLESTON     MOSUNNY   89  71  55 VRB6      29.99F
$$

WVZ022-031-282000-
North Central West Virginia

CITY           SKY/WX    TMP DP  RH WIND       PRES   REMARKS
CLARKSBURG     MOSUNNY   86  70  58 NW7       29.99F
MORGANTOWN     PTSUNNY   91  67  44 VRB3      30.01F
$$

WVZ025-035-042-045-282000-
Southern West Virginia

CITY           SKY/WX    TMP DP  RH WIND       PRES   REMARKS
BECKLEY        MOSUNNY   80  70  71 W7        30.09F
LOGAN            N/A     86  72  62 CALM      30.00F
BLUEFIELD      PTSUNNY   85  67  54 NW5       30.10F
LEWISBURG      SUNNY     85  66  52 SW5       30.06F
$$

WVZ047-282000-
Northern Mountains of West Virginia

CITY           SKY/WX    TMP DP  RH WIND       PRES   REMARKS
ELKINS         MOSUNNY   86  68  54 NW8       30.04S
$$

WVZ052-282000-
Eastern Panhandle of West Virginia

CITY           SKY/WX    TMP DP  RH WIND       PRES   REMARKS
MARTINSBURG    PTSUNNY   87  68  52 E3        29.99F
PETERSBURG     MOSUNNY  N/A N/A N/A CALM      30.00F
$$



USA.gov is the U.S. government's official web portal to all federal, state and local government web resources and services.